Location: Brusselsch Zeekanaal
(50.8667°N, 4.3667°E)
Time: 23:57:24
(UTC+00:00)

SL-16 R/B - Visible Passes

Search period start: 15 February 2026 00:00
Search period end: 25 February 2026 00:00
Orbit: 841 x 844 km, 71.0° (Epoch: 14 February)

Date Brightness Start Highest point End Pass type
(mag) Time Alt. Az. Time Alt. Az. Time Alt. Az.
15 Feb 4.0 05:12:14 10° S 05:17:16 34° ESE 05:22:20 10° NE visible
16 Feb 4.0 04:57:35 10° SSE 05:02:34 33° ESE 05:07:34 10° NE visible
17 Feb 4.0 04:42:56 10° SSE 04:47:51 32° ESE 04:52:48 10° NE visible
18 Feb 4.0 04:28:17 10° SSE 04:33:09 30° ESE 04:38:02 10° NE visible
18 Feb 2.3 06:11:23 10° SW 06:16:57 55° NW 06:22:33 10° NNE visible
19 Feb 4.0 04:13:39 10° SSE 04:18:27 29° ESE 04:23:15 10° NE visible
19 Feb 2.3 05:56:38 10° SW 06:02:12 57° NW 06:07:50 10° NNE visible
20 Feb 4.1 03:59:01 10° SSE 04:03:44 28° ESE 04:08:29 10° NE visible
20 Feb 2.3 05:41:52 10° SW 05:47:28 60° NW 05:53:06 10° NNE visible
21 Feb 4.1 03:44:23 10° SSE 03:49:02 27° ESE 03:53:42 10° NE visible
21 Feb 2.2 05:27:06 10° SW 05:32:43 62° NW 05:38:22 10° NNE visible
22 Feb 4.1 03:30:20 12° SSE 03:34:20 26° ESE 03:38:55 10° NE visible
22 Feb 2.2 05:12:22 10° SW 05:17:59 64° WNW 05:23:39 10° NNE visible
23 Feb 4.1 03:16:50 17° SE 03:19:38 25° ESE 03:24:08 10° NE visible
23 Feb 2.2 04:58:43 16° SW 05:03:14 66° WNW 05:08:55 10° NNE visible
24 Feb 4.1 03:03:09 20° SE 03:04:56 24° ESE 03:09:21 10° NE visible
24 Feb 2.1 04:45:01 24° SW 04:48:30 69° WNW 04:54:11 10° NNE visible
